cover

 

Get it on iTunes StoreListen on Apple Music

Ronski Speed

#Trackname / Key / BPM / Publish dateArtists, Remixers / Label
1 138 bpm, / , 2018-11-19, Trance,  0  2
2 128 bpm, / , 2018-11-19, Trance,  0  2
3 134 bpm, 8B / C major, 2018-11-16, Psy-Trance,  0  12
4 132 bpm, 7A / D minor, 2018-11-09, Trance,  0  30
5 132 bpm, 7A / D minor, 2018-11-05, Trance,  0  1
6 138 bpm, 10B / D major, 2018-11-02, Trance,  0  20
7 138 bpm, 6B / Bb major, 2018-11-02, Trance,  0  20
8 130 bpm, 12B / E major, 2018-11-02, Trance,  1  20
9 126 bpm, 5B / Eb major, 2018-11-02, Trance,  0  20
10 138 bpm, 9A / E minor, 2018-11-02, Trance,  1  20
11 140 bpm, 6B / Bb major, 2018-11-02, Trance,  0  20
12 134 bpm, 6B / Bb major, 2018-11-02, Trance,  0  20
13 131 bpm, 11A / F# minor, 2018-11-02, Trance,  0  20
14 134 bpm, 4B / Ab major, 2018-11-02, Trance,  0  20
15 134 bpm, 6A / G minor, 2018-11-02, Trance,  1  20
16 138 bpm, 11B / A major, 2018-11-02, Trance,  0  20
17 138 bpm, 8A / A minor, 2018-11-02, Trance,  0  20
18 110 bpm, 6B / Bb major, 2018-11-02, Trance,  0  20
19 128 bpm, 1A / Ab minor, 2018-11-02, Trance,  1  20
20 128 bpm, 2A / Eb minor, 2018-11-02, Trance,  0  20
21 128 bpm, 7A / D minor, 2018-11-02, Trance,  0  20
22 128 bpm, 8A / A minor, 2018-11-02, Trance,  0  20
23 128 bpm, 5B / Eb major, 2018-11-02, Trance,  0  20
24 138 bpm, 2B / F# major, 2018-11-02, Trance,  0  20
25 138 bpm, 7A / D minor, 2018-11-02, Trance,  0  20
26 138 bpm, 7B / F major, 2018-10-12, Trance,  0  50
27 130 bpm, 7B / F major, 2018-10-12, Trance,  0  50
28 128 bpm, 9B / G major, 2018-10-08, Trance,  3  1
29 0 bpm, / , 2018-09-28, Trance,  0  25
30 0 bpm, / , 2018-09-28, Trance,  0  25
31 140 bpm, 6B / Bb major, 2018-09-03, Trance,  0  3
32 138 bpm, 6B / Bb major, 2018-09-03, Trance,  2  3
33 130 bpm, 7A / D minor, 2018-09-03, Trance,  0  3
34 132 bpm, 9A / E minor, 2018-08-31, Trance,  0  100
35 138 bpm, 10A / B minor, 2018-07-06, Trance,  0  20
36 138 bpm, 6B / Bb major, 2018-06-18, Trance,  4  1
37 124 bpm, 4B / Ab major, 2018-05-28, Trance,  0  2
38 134 bpm, 4A / F minor, 2018-05-28, Trance,  1  2
39 134 bpm, 4B / Ab major, 2018-05-25, Trance,  0  30
40 132 bpm, 9A / E minor, 2018-05-25, Trance,  1  21
41 132 bpm, 9A / E minor, 2018-05-18, Trance,  0  21
42 132 bpm, 9A / E minor, 2018-04-02, Trance,  5  1
43 138 bpm, 11B / A major, 2018-02-02, Trance,  0  100
44 137 bpm, 9A / E minor, 2018-01-03, Trance,  0  3
45 138 bpm, 8A / A minor, 2018-01-03, Trance,  0  3
46 138 bpm, 9A / E minor, 2018-01-03, Trance,  1  3
47 138 bpm, 11B / A major, 2017-12-22, Trance,  0  15
48 138 bpm, 10A / B minor, 2017-12-22, Trance,  0  26
49 138 bpm, 7A / D minor, 2017-12-22, Trance,  0  25
50 123 bpm, 12B / E major, 2017-12-15, Deep House,  0  26
51 134 bpm, 8A / A minor, 2017-12-15, Trance,  0  26
52 138 bpm, 9A / E minor, 2017-12-15, Dance,  0  26
53 138 bpm, 7A / D minor, 2017-12-15, Trance,  0  26
54 138 bpm, 5A / C minor, 2017-12-11, Trance,  1  2
55 132 bpm, 5A / C minor, 2017-12-11, Trance,  1  2
56 138 bpm, 7A / D minor, 2017-12-08, Trance,  0  25
57 138 bpm, 10A / B minor, 2017-12-01, Trance,  0  20
58 134 bpm, 12A / Db minor, 2017-12-01 (2011-04-05), Trance,  0  1
59 128 bpm, 7A / D minor, 2017-12-01 (2010-09-28), Trance,  0  24
60 138 bpm, 7A / D minor, 2017-11-20, Trance,  1  4
61 138 bpm, 8A / A minor, 2017-11-10, Trance,  0  40
62 132 bpm, 7A / D minor, 2017-11-10, Trance,  0  40
63 138 bpm, 11B / A major, 2017-11-10, Trance,  4  1
64 138 bpm, 7A / D minor, 2017-10-16, Trance,  1  1
65 134 bpm, 11A / F# minor, 2017-10-13, Trance,  0  21
66 134 bpm, 8A / A minor, 2017-10-06, Trance,  3  3
67 138 bpm, 6B / Bb major, 2017-09-29, Trance,  0  20
68 134 bpm, 4B / Ab major, 2017-09-22, Trance,  0  40
69 134 bpm, 4B / Ab major, 2017-09-22, Trance,  0  40
70 130 bpm, 12A / Db minor, 2017-09-08, Trance,  0  30
71 134 bpm, 9B / G major, 2017-08-25, Trance,  0  16
72 126 bpm, 11B / A major, 2017-07-31, Trance,  4  2
73 134 bpm, 11A / F# minor, 2017-07-31, Trance,  4  2
74 138 bpm, 4B / Ab major, 2017-07-28, Trance,  0  25
75 128 bpm, 11A / F# minor, 2017-06-30, Trance,  0  30
76 130 bpm, 10A / B minor, 2017-06-30, Trance,  0  24
77 138 bpm, 6B / Bb major, 2017-06-26, Trance,  1  2
78 138 bpm, 3A / Bb minor, 2017-05-29, Trance,  3  2
79 138 bpm, 3A / Bb minor, 2017-05-29, Trance,  0  2
80 138 bpm, 10A / B minor, 2017-05-24, Trance,  0  25
81 138 bpm, 10A / B minor, 2017-05-19, Trance,  0  20
82 138 bpm, 10A / B minor, 2017-04-28, Trance,  0  25
83 138 bpm, 4A / F minor, 2017-04-28, Trance,  0  25
84 138 bpm, 10A / B minor, 2017-04-28, Trance,  0  20
85 138 bpm, 10B / D major, 2017-04-21, Trance,  0  20
86 138 bpm, 8B / C major, 2017-04-14, Trance,  0  40
87 138 bpm, 10A / B minor, 2017-04-07, Trance,  0  10
88 138 bpm, 1A / Ab minor, 2017-04-07, Trance,  0  13
89 138 bpm, 8B / C major, 2017-04-07, Trance,  0  25
90 134 bpm, 8A / A minor, 2017-03-10, Trance,  0  15
91 128 bpm, 1B / B major, 2017-02-27, Trance,  1  2
92 127 bpm, 1B / B major, 2017-02-27, House,  0  2
93 138 bpm, 8B / C major, 2017-02-27, Trance,  3  1
94 134 bpm, 8A / A minor, 2017-02-17, Trance,  0  21
95 138 bpm, 5A / C minor, 2017-02-10, Trance,  0  20
96 138 bpm, 7B / F major, 2017-02-10, Trance,  0  20
97 138 bpm, 10A / B minor, 2017-02-10, Trance,  0  20
98 138 bpm, 10A / B minor, 2017-01-27, Trance,  10  3
99 138 bpm, 1A / Ab minor, 2017-01-20, Trance,  0  2
100 138 bpm, 4A / F minor, 2017-01-13, Trance,  0  20
×

Sign in

Sign in to access your personalized pages, follow artists and labels you love, and create playlists fromyour favorite tracks.

Please wait...